FLOCK 2E'-6 (41568 NORAD) Tracking and Keplerian Element Data

This shows tracking and keplerian element data for the satellite.

Feedback or suggestion? Click here.




ElementValue
Catalog41568
NameFLOCK 2E'-6
Epoch Orbit10573
Epoch Day95.08131188
Epoch Year2018
RAAN311.8132
Inclination51.6155
Eccentricity0.0009424
Argument of Perigee269.3233
Mean Anonmoly90.533
Mean Motion16.39790798
Decay Rate0.12437793
L11 41568U 98067JS 18095.08131188 .12437793 12391-4 90652-3 0 9998
L22 41568 51.6155 311.8132 0009424 269.3233 90.5330 16.39790798105730

Live tracking and technical data element details for FLOCK 2E'-6 (NORAD 41568). FLOCK 2E'-6 can be tracked NOW for your location showing map with azimuth and elevation plus other details from your city location.

Track the satellite on the map from your city or location and see movement details for azimuth, elevation, latitude, longitude, range, height, and movement on the map or in text.







IsCatalogInMostPopularTable: catalog: 41568, numindb: 131
Update: records affected: 1



GetName: 41568 FLOCK 2E'-6

Hit Count: updated at: Fri, 16 Nov 2018 11:35:06 GMT